Wind_Speed
32 31 30 28 28 27 27 26 25 25 25 25 25 24 24 24 25 27 28 29 28 25 24 23 23 22 21 21 22 21 19 19 19 17 16 15 13 12 12 14 16 18 19 20 20 21 22 23 24 25 26 26 27 28 29 29 29 28 28 28 27 27 26 26 25 26 28 29 30 30 32 33 33 33 28 24 25 26 26 23 23 26 27 25 22 20 19 19
33 31 30 29 28 28 28 28 28 28 28 27 27 28 27 28 28 29 31 32 32 30 27 26 25 24 23 22 22 23 21 21 20 19 18 17 16 14 13 13 14 17 18 19 20 19 19 21 22 24 25 26 26 27 28 29 29 29 29 29 28 28 27 27 26 26 28 29 30 30 33 35 38 38 32 26 26 26 26 24 25 26 26 25 24 23 22 21
33 32 31 30 29 28 28 29 30 30 30 30 31 31 31 31 31 32 33 34 35 34 31 29 27 26 25 24 24 24 23 22 22 20 19 19 18 17 15 13 13 15 16 17 19 18 17 18 20 22 24 25 26 26 27 28 29 30 29 29 29 29 28 28 27 27 28 29 30 31 33 35 39 41 37 32 29 28 28 26 25 26 27 27 26 25 24 22
34 33 31 31 30 29 29 29 30 31 31 32 33 33 34 34 34 34 35 36 37 37 35 32 30 28 27 26 26 25 24 24 23 21 19 19 19 19 19 16 14 15 16 16 17 18 17 17 19 21 23 24 25 26 27 27 28 29 30 30 30 30 30 29 28 28 28 29 30 31 33 35 38 40 40 36 32 30 30 29 28 28 28 28 27 26 25 24
35 33 32 31 31 31 30 30 31 31 32 33 34 35 35 35 36 36 36 37 38 38 38 35 33 30 29 28 27 27 26 25 24 23 21 20 19 20 20 19 17 17 17 16 16 17 17 17 18 19 21 22 24 24 26 27 27 29 30 30 30 30 30 30 30 29 29 30 31 32 33 35 37 39 38 37 34 33 32 31 31 31 31 30 29 29 27 26
37 35 34 33 32 32 32 32 32 32 33 33 35 35 36 37 37 37 37 38 39 39 39 38 35 33 30 29 29 28 28 27 25 24 23 21 20 20 20 21 20 19 19 17 16 16 17 17 17 18 20 21 23 24 25 26 27 28 29 30 31 31 31 31 31 31 30 31 31 32 33 35 36 38 38 36 35 35 33 32 32 31 32 32 31 30 28 27
38 37 36 35 34 34 34 34 34 34 35 35 36 37 38 38 39 39 39 39 39 40 40 39 37 35 32 30 30 30 30 28 26 26 25 23 22 21 20 21 21 21 21 19 16 15 16 16 16 17 18 20 22 23 24 26 27 28 29 30 31 31 31 31 31 31 31 31 31 32 33 35 36 37 37 36 35 34 34 33 32 32 32 32 32 31 29 28
41 39 38 37 37 36 36 36 36 37 37 38 39 40 40 40 40 40 40 40 40 40 40 40 39 36 34 32 31 31 31 29 27 27 26 25 23 22 21 21 21 22 22 22 18 16 15 15 15 16 17 19 21 22 23 25 27 28 29 30 31 31 31 31 31 32 31 31 31 31 32 33 35 35 36 35 34 33 33 33 33 33 33 32 32 32 30 29
44 43 41 40 40 39 39 39 39 39 40 40 42 42 42 41 41 41 41 40 40 40 40 40 39 37 35 33 32 31 32 30 28 28 27 26 25 23 22 21 21 21 23 23 21 18 16 15 16 16 17 19 20 21 23 24 26 27 28 29 31 31 31 31 31 32 32 31 31 31 32 32 33 34 35 35 34 33 32 32 33 34 34 32 32 32 31 29
47 46 45 43 42 41 41 41 40 40 41 41 42 42 42 41 40 40 40 40 40 39 39 38 37 36 35 34 33 32 32 31 30 28 28 28 26 25 24 23 22 22 23 24 23 21 18 16 16 16 16 17 19 20 22 24 25 26 27 28 30 31 31 31 31 32 32 32 32 32 33 33 33 33 34 34 34 33 33 33 33 34 34 33 32 31 31 30
48 47 46 45 44 42 41 41 40 40 40 40 41 41 40 40 39 39 39 39 39 38 38 37 36 35 35 35 35 33 32 32 32 30 29 29 28 27 26 24 24 22 23 25 25 24 20 17 17 16 16 16 17 19 21 22 24 25 26 27 28 30 31 31 32 32 32 32 32 33 34 34 35 34 35 35 35 34 33 33 34 34 35 34 33 31 30 30
48 47 46 45 43 42 41 40 39 39 39 39 39 38 38 38 37 37 37 38 38 38 38 37 37 36 37 38 37 35 34 33 33 31 30 31 30 28 27 26 25 24 23 24 26 25 23 20 18 17 16 17 17 18 20 21 22 23 25 26 27 28 29 31 31 32 32 33 33 33 34 34 35 36 36 36 36 35 34 33 33 34 35 35 34 33 31 30
46 45 44 43 42 41 39 38 38 37 38 38 37 36 36 36 36 37 37 38 39 39 40 39 38 38 38 39 40 37 35 34 34 34 33 32 32 31 29 28 27 26 24 25 26 26 25 23 21 18 17 17 17 18 19 20 20 21 23 24 25 27 28 29 30 31 32 33 33 33 33 34 34 36 36 36 36 36 35 34 33 34 34 35 34 33 33 31
44 43 42 41 40 39 37 36 36 36 36 35 34 34 34 35 36 37 38 39 39 40 40 40 40 39 39 41 41 39 36 35 36 36 35 34 34 32 31 29 28 27 26 25 27 27 27 25 24 21 19 19 18 19 19 18 18 19 21 23 25 26 27 28 29 30 31 32 33 33 33 34 34 35 36 36 36 36 36 35 35 35 34 35 34 33 32 31
41 40 39 38 37 37 36 34 33 34 34 33 33 34 35 36 37 38 39 39 39 39 40 40 39 39 40 41 41 40 38 37 36 37 37 36 35 34 32 31 29 29 27 27 28 28 28 27 26 23 21 20 19 19 19 18 18 18 19 22 24 26 27 27 28 29 29 30 31 32 33 33 33 34 35 36 36 36 37 36 36 36 35 35 34 32 30 29
37 36 35 34 34 34 33 30 30 33 33 33 34 35 36 37 37 38 38 38 37 37 37 37 37 37 39 41 40 39 39 38 37 37 38 37 35 35 34 32 30 29 29 30 29 29 30 29 28 25 23 22 20 20 20 19 18 18 19 21 23 25 25 26 27 28 29 29 30 30 31 32 32 33 34 35 35 35 36 36 35 35 35 34 34 33 30 27
35 33 32 31 31 31 30 29 31 34 34 35 35 36 36 36 37 36 36 35 34 33 32 32 33 33 35 38 37 38 40 39 38 38 38 39 37 36 35 33 31 30 31 33 31 29 31 31 29 27 25 24 21 20 21 20 19 18 18 20 22 23 24 25 26 27 28 29 29 29 29 30 30 31 32 33 33 33 33 34 34 34 34 33 33 32 30 27
35 33 32 31 31 31 31 31 33 35 35 35 35 35 35 35 35 33 32 32 30 28 27 27 28 28 30 33 34 35 38 39 39 37 38 39 38 37 35 34 33 31 33 35 33 30 32 34 31 28 27 26 23 21 21 21 20 19 18 19 19 21 22 24 24 25 27 28 28 28 27 28 28 29 29 30 31 31 32 32 32 33 33 33 32 31 31 28
37 35 34 33 33 33 33 33 34 36 35 35 35 34 33 32 31 30 29 29 27 25 24 23 23 24 26 29 30 32 35 37 37 36 37 38 39 37 36 35 34 33 34 36 34 31 33 36 33 28 28 28 25 22 22 22 20 19 19 19 18 19 21 22 23 24 24 26 27 27 27 26 26 26 26 26 27 29 30 31 32 32 32 32 31 31 31 29
40 38 36 36 35 35 35 34 34 35 35 33 33 32 31 30 28 27 27 27 25 23 22 21 21 22 24 25 27 29 31 32 33 34 35 37 38 37 36 36 35 35 36 36 35 33 35 38 35 29 29 30 27 24 23 23 21 20 21 20 19 19 19 21 22 23 23 24 25 26 26 25 25 24 23 23 24 25 27 28 30 31 31 30 29 30 30 30
41 39 38 37 37 36 36 34 34 34 33 32 31 29 29 28 26 25 26 26 24 24 23 22 21 22 23 23 24 26 27 28 28 29 31 34 35 36 36 36 36 38 37 35 34 35 37 38 35 30 30 31 30 27 25 24 22 20 21 20 19 19 18 19 21 22 22 22 24 24 24 24 24 22 21 21 21 22 23 25 27 28 28 28 28 29 29 29
42 40 39 38 38 37 36 34 33 32 30 30 29 28 27 26 25 25 26 26 24 24 23 22 22 23 23 23 23 23 23 23 23 24 27 29 31 33 34 35 37 38 36 34 36 39 40 37 33 30 32 33 32 28 26 25 23 21 20 20 20 19 19 19 20 22 22 22 22 23 23 23 22 21 20 19 19 19 21 22 24 25 26 26 25 26 27 29
41 39 38 38 37 36 34 33 31 30 28 28 28 27 26 25 25 24 25 25 23 22 22 22 23 24 24 23 23 22 22 22 22 22 23 26 28 30 32 34 36 37 36 35 38 41 41 35 31 31 34 35 33 30 28 26 24 21 19 19 20 20 20 20 20 20 21 22 22 23 23 22 21 20 19 18 17 18 19 20 22 23 24 23 21 21 23 25
39 38 37 37 35 34 32 31 29 28 27 28 28 27 25 25 24 24 23 23 21 21 21 21 23 24 23 23 23 23 24 24 24 22 22 23 25 26 29 32 33 35 36 37 39 41 40 35 33 33 34 35 34 32 30 27 25 22 19 19 20 21 21 21 20 20 20 21 22 22 22 22 21 20 20 18 17 17 17 18 20 21 21 20 19 19 20 22
37 36 35 34 33 32 30 29 28 27 27 27 27 26 26 25 24 24 23 22 21 21 21 22 23 23 23 23 23 24 25 26 25 24 23 23 23 25 27 29 30 32 35 37 40 41 38 35 34 34 34 36 36 34 32 28 25 22 20 19 21 22 22 22 21 20 20 20 20 21 22 22 21 21 20 18 16 16 17 18 18 18 19 18 18 19 20 21
34 33 32 31 30 29 28 27 27 27 27 27 27 26 26 25 24 24 23 22 21 22 22 22 23 24 24 24 25 25 25 26 27 26 25 24 24 24 25 26 28 30 32 34 38 40 37 35 35 35 36 37 37 35 32 29 26 23 21 20 22 22 22 21 21 20 20 20 19 19 21 22 22 21 19 17 16 15 16 18 18 18 18 18 18 19 19 21
31 30 29 28 28 28 28 27 27 27 27 27 27 27 26 25 24 24 23 23 22 22 23 23 24 25 25 26 27 27 27 28 28 27 27 27 26 26 26 26 27 29 30 31 36 40 38 35 36 36 36 37 37 35 33 31 27 24 22 22 22 22 21 21 21 21 20 20 19 18 19 21 22 21 20 18 17 16 15 17 19 20 19 18 18 18 18 19
28 27 27 27 27 27 27 26 27 27 27 27 27 26 25 24 24 23 23 23 23 24 24 24 24 25 25 26 27 28 28 29 28 28 28 28 28 28 28 27 26 27 28 30 36 39 35 35 38 36 36 37 37 35 33 32 29 25 24 24 22 22 21 21 21 21 21 21 19 17 18 20 21 21 21 20 18 17 16 16 18 20 20 18 18 18 18 19
26 26 26 26 26 27 27 26 27 27 27 27 27 26 25 24 24 24 24 24 25 25 25 25 25 25 25 25 26 27 29 30 29 29 29 29 30 29 29 28 26 25 27 32 36 35 32 36 38 35 37 39 38 36 35 34 31 28 26 24 22 22 21 21 21 21 22 22 20 18 17 18 19 20 22 22 20 19 18 17 18 19 20 19 18 19 19 19
25 25 25 25 25 27 27 26 27 27 27 27 27 26 26 25 24 25 25 26 27 27 26 26 26 25 25 25 25 26 27 29 29 29 29 29 30 30 30 29 26 25 28 32 34 33 33 35 36 37 41 41 37 36 36 35 33 29 26 23 21 22 21 21 22 21 22 23 21 19 18 17 17 19 22 23 22 21 20 19 19 20 20 19 19 19 19 19
25 24 24 24 25 27 28 26 26 27 27 27 27 26 26 25 25 26 26 27 28 28 28 27 27 26 25 25 25 25 26 26 27 29 30 30 30 30 30 29 26 26 28 31 33 34 34 34 36 40 43 40 37 37 37 37 34 29 26 23 21 23 22 21 22 21 22 24 22 20 19 18 17 18 20 21 21 21 21 21 21 21 20 19 19 19 19 18
25 23 23 24 25 27 28 26 26 27 27 27 27 27 26 26 26 27 27 28 28 29 30 29 27 27 26 26 26 26 25 24 25 27 30 31 30 30 30 28 26 26 28 31 32 32 33 34 37 42 43 39 37 38 38 38 35 29 25 24 23 24 23 23 21 19 21 24 23 22 20 19 19 19 19 20 21 20 20 20 21 21 20 19 18 18 18 17
24 23 23 24 26 28 27 26 27 27 28 28 28 28 27 27 27 28 28 28 29 30 31 30 29 29 28 28 27 27 25 23 23 26 29 31 30 29 29 28 26 26 28 30 29 28 30 33 36 40 41 39 38 40 41 40 34 28 25 24 24 25 24 23 20 18 21 24 24 23 21 19 20 20 19 20 20 19 19 19 20 21 20 19 18 19 19 17
24 24 24 25 27 28 27 26 27 28 28 29 29 29 28 28 28 28 28 29 30 31 31 30 29 30 30 30 29 28 26 24 23 25 27 29 29 29 29 28 27 26 27 28 27 28 30 32 36 40 42 41 41 42 41 39 33 27 25 26 26 26 24 22 20 20 22 24 24 23 21 19 20 21 21 21 20 20 20 20 20 21 20 20 20 20 20 18
26 26 27 27 28 28 27 27 29 30 30 30 30 29 29 28 29 29 28 29 30 31 31 30 30 30 31 31 30 30 27 25 24 24 26 27 28 29 29 29 28 27 27 27 27 27 30 33 37 41 43 42 43 43 41 39 33 28 27 28 27 26 24 23 23 23 23 24 24 23 20 18 20 22 22 22 22 21 21 21 21 21 21 21 22 22 22 20
28 28 29 29 30 30 29 29 31 32 32 31 31 30 29 30 30 29 29 29 30 31 31 30 30 30 31 31 32 31 29 27 24 24 25 25 26 27 28 28 28 27 27 27 27 27 30 35 39 41 42 43 44 44 41 39 34 30 30 30 27 27 26 25 26 24 23 24 24 22 19 18 20 21 22 23 23 22 21 21 21 21 21 22 23 23 23 21
30 30 31 31 31 31 31 31 32 33 33 33 33 32 31 31 30 29 29 30 31 32 31 30 30 31 31 31 32 32 31 29 26 24 24 24 25 26 26 26 27 27 26 26 26 27 30 35 36 38 41 43 44 43 40 38 34 32 32 31 29 29 28 27 27 26 24 24 24 22 19 19 20 21 21 23 23 23 22 22 21 20 20 21 22 23 23 22
33 33 32 33 33 33 33 33 34 35 35 35 34 32 32 31 30 29 29 30 31 31 31 30 31 31 32 32 31 32 32 31 28 25 24 24 24 24 25 26 26 26 25 25 25 25 29 32 34 37 41 42 42 41 40 38 36 35 34 31 30 31 30 29 29 27 24 24 24 21 18 20 21 21 22 23 23 23 23 22 21 20 19 20 21 21 21 21
35 35 35 35 35 35 35 35 36 36 37 36 35 33 32 31 29 29 29 29 29 30 30 31 31 33 33 32 31 31 31 31 30 26 24 24 23 23 23 25 27 27 26 25 24 24 27 28 30 36 40 40 41 41 40 39 38 37 33 30 31 31 30 30 29 26 23 23 23 21 18 20 23 23 23 23 23 23 23 23 22 20 19 19 19 20 19 20
37 37 36 37 36 36 37 36 36 37 37 37 35 33 31 30 29 28 28 28 28 29 30 31 32 34 34 32 31 31 31 31 31 28 26 25 23 23 24 25 27 28 28 27 26 26 27 26 28 33 37 38 40 42 42 41 40 38 33 31 31 32 31 31 28 25 23 23 24 22 19 21 23 23 23 23 24 23 23 24 23 21 20 20 20 20 19 19
39 38 38 38 38 38 38 38 38 38 38 37 35 33 31 30 29 28 28 28 28 29 29 30 33 34 34 32 31 31 32 31 30 30 28 26 25 24 25 26 27 29 29 27 26 27 28 27 27 31 35 38 40 42 42 41 40 38 34 32 32 32 31 30 28 26 23 23 25 22 20 22 23 23 23 24 24 24 24 24 23 22 21 21 21 20 20 20
40 40 40 40 40 40 40 39 39 39 38 37 35 34 32 31 29 28 29 29 29 29 29 30 32 34 33 32 31 32 32 31 30 29 28 28 27 26 26 26 28 30 29 28 27 27 28 28 27 30 34 38 40 41 42 42 41 38 35 33 33 33 32 32 31 27 23 23 25 23 21 21 23 23 25 25 24 24 24 24 23 22 22 22 22 21 21 21
42 42 42 42 42 42 41 40 40 40 39 38 36 34 33 32 30 29 29 30 29 29 29 30 31 32 32 31 32 32 32 32 30 28 28 28 29 29 28 27 29 31 30 28 28 27 27 27 27 30 35 37 39 40 41 42 40 38 37 36 35 35 35 34 32 27 24 24 26 24 21 21 23 24 25 26 25 24 24 24 23 22 22 22 22 22 22 22
44 44 43 44 43 42 41 41 41 41 39 38 37 35 35 33 30 30 30 31 30 30 31 31 31 31 31 31 31 31 31 32 31 29 28 28 30 31 31 30 30 32 32 30 29 29 28 27 27 29 33 36 38 40 42 42 41 41 40 38 37 36 36 35 33 28 26 26 27 25 21 20 23 25 26 26 25 24 24 23 23 22 22 22 22 23 23 23
45 44 44 44 43 42 42 42 42 41 40 39 38 37 36 34 32 31 32 32 32 33 33 32 31 30 30 31 30 30 30 31 31 31 30 29 30 33 33 32 32 34 34 32 30 30 29 28 27 28 31 35 38 42 44 44 43 43 41 38 37 37 36 36 34 30 28 28 28 25 20 20 24 26 26 26 25 24 23 23 23 23 22 22 22 23 24 24
45 45 44 44 43 42 43 43 42 41 41 41 40 39 38 36 34 33 34 35 35 35 34 33 31 31 31 31 31 30 30 30 30 31 32 30 31 33 34 34 34 36 37 35 33 31 31 30 29 29 31 33 36 40 43 43 43 42 40 38 37 37 37 36 34 31 30 29 28 25 22 22 25 27 27 26 25 24 22 22 23 23 23 23 23 24 24 25
46 46 45 45 44 43 43 44 43 42 42 42 41 40 40 38 36 35 36 37 37 37 36 34 32 31 32 33 32 31 29 29 30 31 33 32 32 34 35 36 37 38 38 38 35 33 34 33 32 31 31 32 33 36 39 41 42 42 41 39 38 36 35 35 35 34 32 30 28 26 24 24 26 26 27 26 25 23 22 21 22 24 24 25 25 25 25 25
48 48 48 47 46 45 45 45 44 44 44 44 43 42 41 40 39 38 38 38 39 38 37 35 33 32 33 34 33 32 30 28 29 31 33 34 33 33 35 37 39 39 40 40 38 36 36 36 34 31 31 31 32 34 37 41 44 44 42 40 38 36 35 36 37 36 33 32 30 26 25 27 26 26 27 26 25 24 22 21 23 24 26 26 26 27 27 26
51 51 51 50 48 48 47 47 46 46 46 46 44 44 43 42 41 40 39 40 40 39 37 35 34 34 35 35 34 33 31 28 29 31 33 35 35 34 35 37 40 40 41 41 40 39 39 38 36 33 31 31 32 34 37 40 43 43 43 42 40 38 38 38 39 38 35 35 32 26 25 28 27 26 27 27 27 25 23 22 24 26 27 27 27 27 27 26
54 53 53 53 52 51 50 49 48 48 48 47 46 45 45 44 43 42 41 41 41 40 38 36 35 35 35 35 35 34 31 29 29 31 32 35 36 36 35 37 40 42 42 42 42 42 42 40 38 35 33 32 33 35 37 39 40 42 44 43 42 41 41 41 41 40 37 36 33 28 26 28 29 28 28 27 28 27 25 25 26 27 27 27 27 27 27 27
57 56 56 56 55 54 53 52 51 50 50 49 48 48 47 45 45 44 43 42 42 40 39 37 36 36 36 36 36 35 32 30 30 31 33 34 36 37 36 36 40 43 43 43 43 44 45 43 40 36 34 33 33 35 38 39 39 41 44 44 43 43 44 44 43 41 39 38 35 30 29 30 30 29 26 26 28 29 28 27 26 26 27 27 27 27 27 28
58 58 58 58 57 57 55 54 53 52 51 51 50 49 48 46 46 45 44 43 42 40 39 38 37 37 37 37 37 36 34 33 32 32 33 35 37 37 36 36 39 43 45 43 44 45 46 46 42 36 35 34 34 36 38 38 39 41 42 43 43 43 44 43 43 42 41 39 36 33 31 31 30 27 25 25 27 29 29 28 25 26 28 28 28 27 27 28
Wind_Direction
297 296 291 288 287 284 281 278 276 274 273 274 274 276 279 282 286 290 293 295 296 295 295 296 298 301 303 303 301 299 299 298 296 296 296 291 287 283 277 271 264 259 256 254 251 251 250 247 245 242 240 238 237 236 237 236 234 233 233 233 231 229 227 227 226 225 224 220 220 216 214 208 202 209 214 219 229 231 230 230 231 234 236 241 248 251 252 252
295 293 288 284 282 281 279 278 277 276 276 275 276 276 278 280 283 287 289 292 293 293 292 292 294 296 298 299 297 295 294 293 292 292 295 296 293 289 284 279 274 265 260 257 253 250 251 250 247 244 241 239 238 236 236 236 235 234 233 233 231 230 227 226 225 225 225 222 221 218 215 211 205 211 215 217 231 239 239 237 235 240 245 246 251 254 254 253
293 292 287 282 279 277 277 276 276 276 277 277 278 278 279 280 282 284 286 288 290 291 291 290 290 291 294 296 295 291 289 288 287 287 290 294 295 294 290 284 282 275 267 263 258 253 251 250 249 247 244 241 239 238 237 236 235 234 233 233 232 231 229 226 226 225 225 224 222 220 218 215 211 215 219 220 226 234 241 242 239 243 249 252 254 256 256 254
291 290 287 281 278 275 274 274 274 274 276 276 277 278 279 279 280 282 284 285 287 288 289 288 288 288 290 292 292 289 286 283 282 283 284 287 292 295 294 289 286 283 276 269 264 258 254 251 249 248 246 244 242 240 238 237 236 235 234 233 232 232 231 228 227 225 225 225 224 222 220 218 217 219 224 226 225 228 232 234 235 239 246 253 255 255 255 253
290 289 286 282 278 276 274 273 273 274 274 275 276 276 277 278 278 279 280 282 284 285 286 286 286 285 286 288 288 286 284 280 279 279 279 281 286 290 292 292 289 286 281 274 269 264 258 253 249 247 245 243 243 242 241 239 237 236 235 234 233 232 231 229 228 226 225 225 225 224 223 221 221 224 227 229 229 230 230 230 232 234 239 244 248 252 253 254
288 286 284 282 279 277 275 273 273 274 275 276 276 276 277 277 277 277 277 278 280 281 283 283 283 283 283 284 284 283 281 278 277 276 275 276 279 282 287 290 290 288 284 279 275 271 266 261 256 250 246 241 240 240 241 241 240 237 236 235 234 232 231 230 229 227 225 224 225 225 224 223 224 226 229 231 232 234 235 236 237 237 238 240 244 249 252 255
286 285 283 281 279 277 275 274 274 274 275 276 276 277 277 277 276 276 276 276 276 278 279 280 281 280 280 280 279 279 278 276 276 275 273 273 273 276 280 283 286 288 285 281 278 276 273 270 266 260 255 248 241 237 236 238 240 239 237 236 235 233 232 231 230 229 227 225 225 225 225 225 225 227 229 232 234 236 238 241 244 245 245 247 249 252 255 257
285 284 282 280 278 277 276 275 274 274 274 275 276 277 277 276 276 275 274 274 274 275 276 277 278 278 278 277 275 275 274 275 274 273 272 271 270 271 273 276 279 283 284 281 278 276 273 271 268 264 261 256 250 244 238 235 235 237 238 237 236 235 233 232 231 230 230 228 227 226 225 225 226 227 229 231 235 238 240 242 244 247 249 251 253 255 256 258
284 283 282 281 279 277 276 275 275 275 275 275 276 276 276 276 275 274 273 273 273 273 273 274 274 275 275 274 272 271 271 272 272 271 271 270 268 268 268 269 271 275 279 279 277 275 272 271 267 261 259 256 253 249 245 239 234 234 235 237 237 236 235 233 232 232 231 230 228 227 226 225 225 227 229 231 235 239 242 243 245 247 249 251 253 255 256 257
283 282 282 281 279 278 277 276 275 275 275 275 275 275 275 275 274 273 273 272 272 271 271 271 271 272 272 271 269 268 269 270 270 269 269 268 267 265 264 264 265 267 272 276 277 275 271 271 269 265 262 259 256 253 249 245 239 235 234 235 236 236 236 235 234 233 233 232 230 228 227 226 226 227 229 231 235 239 242 244 246 248 250 250 250 253 256 258
281 281 281 280 279 278 276 276 276 275 275 274 274 274 274 274 273 272 271 271 270 269 269 269 269 269 269 269 267 266 266 267 267 267 267 266 265 263 262 261 260 261 266 271 274 273 271 270 270 270 269 266 263 260 255 250 245 241 238 236 235 235 236 235 235 235 234 234 232 230 229 229 229 229 230 231 234 238 241 245 246 247 249 251 250 251 254 257
281 280 280 280 279 277 276 276 275 275 274 273 272 272 272 272 271 270 269 269 269 269 268 268 268 267 267 267 266 265 264 265 266 265 265 264 263 261 259 258 258 257 260 266 270 271 271 270 269 270 270 268 265 262 259 254 251 248 245 241 238 236 236 235 235 235 235 235 235 233 232 231 232 233 233 234 235 237 239 242 246 247 249 252 253 252 253 255
280 279 279 279 278 277 276 275 275 274 273 272 271 270 270 269 269 269 269 269 269 269 269 268 267 266 266 265 265 264 263 263 264 264 262 262 262 260 258 257 256 256 255 260 265 268 269 269 268 267 268 268 266 263 258 255 253 253 252 248 244 241 238 236 235 234 235 235 235 235 235 235 235 235 236 237 238 238 238 239 242 246 249 252 255 256 255 255
279 278 278 278 277 276 275 275 274 273 271 270 270 269 269 269 269 269 269 270 270 270 270 269 268 266 264 263 263 263 261 260 261 261 260 259 260 259 258 256 255 255 254 256 261 264 266 267 266 265 265 266 267 265 261 257 255 255 255 252 248 245 242 240 237 236 236 236 236 236 237 238 238 237 237 237 239 240 240 241 242 246 249 252 253 255 257 259
278 278 277 276 276 275 274 274 273 271 270 270 270 270 270 271 271 271 271 271 271 270 270 269 268 266 263 261 260 260 259 257 257 258 259 258 258 259 257 255 254 254 255 255 256 260 262 264 264 263 263 264 264 265 262 258 255 253 253 253 251 248 245 244 242 240 239 238 239 239 239 240 241 240 239 239 240 242 242 242 244 246 248 250 252 252 255 259
277 277 276 275 274 273 272 272 271 270 270 271 272 272 273 273 273 272 272 272 271 270 269 269 267 265 263 261 259 258 256 253 253 254 256 256 256 256 256 254 253 253 255 254 252 256 259 260 262 262 262 262 262 264 264 261 256 251 248 249 250 250 248 248 246 245 243 241 240 241 242 241 242 242 242 242 242 243 243 242 243 245 246 248 250 251 252 254
276 275 275 274 273 272 271 271 271 271 272 273 273 274 274 273 273 273 272 271 270 270 269 268 267 265 264 262 259 256 254 252 250 250 253 254 253 253 254 254 253 252 253 253 251 253 258 258 259 261 262 262 261 263 266 265 262 257 250 247 249 250 249 248 248 248 246 244 242 241 242 243 243 243 244 244 244 244 245 245 245 245 245 247 249 250 250 250
274 274 273 273 272 271 271 272 272 272 273 274 275 274 273 272 271 272 271 270 269 268 268 268 269 266 263 261 258 255 254 252 250 249 250 253 253 253 254 254 252 251 252 254 251 251 256 257 255 258 261 261 259 260 265 266 266 265 260 254 252 252 250 248 248 248 248 247 245 242 241 242 243 243 244 245 246 246 246 246 247 246 246 245 248 249 247 248
272 272 272 272 271 272 272 272 272 273 274 274 273 272 270 269 269 269 268 268 269 268 268 269 270 267 262 259 256 253 252 252 252 250 250 252 253 253 253 253 252 251 251 253 252 251 254 255 253 254 258 260 259 258 260 263 264 266 265 260 257 255 254 252 250 250 251 250 247 243 241 240 240 241 242 243 245 246 246 246 246 246 246 246 246 246 245 245
270 270 270 270 270 271 271 272 272 272 272 271 269 267 266 265 265 266 266 269 271 270 270 271 272 268 261 256 254 252 251 252 252 251 251 252 252 253 252 252 252 251 249 251 252 251 252 254 252 252 256 258 258 257 258 260 261 264 265 262 257 254 254 254 254 252 252 253 252 246 242 240 239 239 238 240 243 245 246 245 245 245 245 246 245 244 243 243
268 268 268 269 269 269 270 270 270 269 269 266 263 262 261 261 262 264 267 269 270 271 272 272 272 269 264 260 258 257 256 255 254 254 254 254 254 254 253 252 252 251 249 250 253 252 251 251 252 251 254 256 256 256 256 258 258 260 263 265 261 254 250 250 252 253 252 252 254 251 245 241 239 237 235 236 239 242 244 244 244 244 243 244 245 244 244 243
266 266 266 266 267 268 268 268 266 264 262 260 258 257 258 260 261 263 265 267 268 270 271 271 270 269 268 267 266 266 265 263 258 255 254 255 254 252 251 251 251 251 251 251 252 251 250 249 251 252 253 254 254 255 255 256 256 257 262 267 267 261 252 246 246 250 252 251 252 253 251 245 239 236 233 232 234 237 239 241 242 243 242 241 242 244 244 243
263 264 264 264 265 265 265 264 261 258 255 253 253 254 255 258 260 261 262 264 267 268 269 270 269 269 270 271 272 273 272 267 262 256 254 254 253 252 251 249 248 249 249 248 249 250 250 250 250 250 251 252 253 253 253 254 255 256 259 265 269 268 261 252 244 244 248 250 251 251 252 249 244 238 233 231 231 233 234 236 237 238 237 236 236 240 242 241
261 261 261 261 261 261 260 257 254 250 249 249 251 253 254 255 256 256 258 261 265 266 267 268 269 271 273 274 274 273 270 268 266 264 259 257 257 255 252 250 249 248 246 245 246 249 250 249 248 249 251 253 253 252 252 252 253 254 255 259 264 267 264 259 251 244 242 245 248 250 251 251 248 241 235 231 231 234 233 233 233 233 232 230 231 235 238 238
258 258 257 257 256 254 252 249 247 245 245 247 249 251 252 252 253 253 255 258 261 263 265 267 270 273 274 274 273 270 270 270 269 267 263 261 260 257 256 254 252 249 246 244 245 247 248 248 247 248 250 252 252 252 252 251 252 252 252 253 257 261 262 260 257 252 245 241 243 247 249 249 249 245 238 232 231 234 235 234 234 233 231 228 229 232 235 236
253 253 252 250 248 246 243 242 241 242 244 246 248 249 250 250 252 253 255 257 259 262 265 267 270 272 272 272 271 271 271 270 268 267 266 263 262 260 259 255 252 250 247 246 247 247 245 245 245 246 248 250 251 251 252 252 252 251 251 251 253 257 261 263 261 258 253 246 240 241 244 245 246 245 241 234 231 233 237 239 239 237 234 232 232 233 234 236
247 246 244 241 238 237 237 237 239 242 243 245 247 248 249 251 253 254 256 258 261 263 266 266 267 268 269 269 269 270 270 268 267 267 266 263 261 260 259 256 252 249 247 246 247 245 241 241 243 244 246 249 251 251 252 253 252 251 251 250 252 256 259 263 264 263 261 253 243 238 238 240 240 242 243 238 234 234 236 240 242 241 238 236 237 238 239 240
240 237 234 230 230 233 235 236 239 242 243 244 246 248 250 252 254 256 259 261 263 264 265 264 264 265 267 266 266 266 264 264 265 264 263 262 261 260 259 259 256 253 249 245 245 244 240 240 242 243 245 247 249 250 251 251 251 249 248 247 249 253 256 260 263 265 265 259 251 243 237 235 235 236 239 238 236 237 237 238 240 241 240 238 239 243 244 245
230 227 224 223 226 232 235 236 239 242 243 244 246 249 251 254 257 259 262 264 264 264 264 264 264 265 266 268 268 266 263 261 261 261 261 261 261 261 261 260 259 257 252 247 246 244 238 237 240 241 243 244 244 246 247 248 247 245 246 247 248 252 255 259 262 264 265 263 258 254 246 237 232 232 234 235 235 238 240 240 239 240 240 238 237 241 244 246
220 218 217 221 228 234 236 237 240 242 243 245 247 250 253 256 259 262 265 266 266 266 266 266 265 266 267 269 270 270 268 265 262 259 259 260 260 260 260 260 258 257 254 249 246 243 236 234 237 239 241 240 241 244 246 246 245 244 245 247 249 251 253 257 260 264 267 265 262 261 257 248 238 233 234 234 233 235 240 242 241 240 240 239 238 241 244 245
213 213 218 224 230 235 237 238 240 243 245 247 249 252 255 258 261 264 266 267 268 269 269 268 268 269 269 270 272 273 274 273 269 262 258 257 257 258 260 260 259 258 257 253 248 243 237 232 232 236 239 239 239 242 244 245 245 242 243 245 246 248 249 251 255 260 266 268 267 265 262 258 250 240 236 235 234 233 237 241 243 242 240 239 240 243 245 245
211 214 222 228 232 236 239 239 241 245 247 249 251 253 256 259 263 265 266 268 269 270 270 272 273 273 273 273 273 275 276 277 275 267 260 257 256 257 259 260 260 259 259 256 251 247 243 235 232 236 239 239 239 241 243 244 243 241 241 243 245 246 246 247 250 255 261 264 265 263 260 260 257 249 241 239 238 236 236 239 241 242 241 240 241 245 246 246
215 220 226 231 235 237 240 242 243 246 249 251 252 255 257 260 263 265 267 268 269 270 272 274 276 275 275 275 276 277 278 278 276 270 262 258 258 258 259 259 258 258 259 258 253 249 245 240 236 237 239 238 239 240 241 242 241 239 240 242 244 244 244 246 248 251 256 258 259 259 258 258 258 255 249 245 243 243 242 241 241 242 240 239 241 244 245 247
222 226 230 234 238 239 241 244 246 248 250 252 253 255 258 261 264 266 268 269 270 271 273 275 275 276 276 276 277 277 278 277 274 269 264 261 259 258 258 258 258 257 258 259 255 247 241 237 235 235 237 236 237 238 240 242 241 237 237 240 241 243 243 244 245 245 250 255 257 258 259 258 257 256 255 253 251 249 248 246 244 243 240 238 239 241 244 248
228 231 233 237 241 241 242 244 247 249 251 253 255 258 261 263 265 266 268 269 270 270 272 273 274 274 275 275 276 276 277 276 273 268 264 260 258 257 258 258 258 257 257 258 255 246 239 235 232 233 234 234 234 236 238 239 239 236 236 237 239 241 241 241 241 240 244 251 255 257 258 258 258 256 255 256 254 250 247 245 244 242 239 237 237 239 243 247
233 235 237 239 242 244 244 245 248 250 252 254 257 260 262 264 265 267 269 269 269 270 271 273 273 273 273 273 274 275 276 275 273 269 264 259 256 256 258 259 259 259 259 259 256 249 241 235 233 233 233 234 234 235 235 237 236 234 235 235 236 238 238 237 238 238 240 246 250 252 252 252 253 254 253 253 252 250 246 243 241 240 237 235 234 236 240 243
238 239 240 242 244 245 246 247 249 252 254 256 258 260 262 263 265 267 268 268 269 271 272 273 273 272 272 271 272 274 275 276 275 273 268 260 254 253 255 257 259 259 260 261 259 253 245 239 236 235 235 235 236 236 236 236 235 233 233 233 233 235 234 234 235 234 235 241 244 247 249 248 247 248 247 248 248 248 246 243 240 238 236 234 233 233 236 238
242 242 244 245 246 247 248 249 251 253 256 258 260 261 262 263 265 266 267 267 269 271 272 273 272 271 270 270 270 271 274 276 277 276 272 264 255 250 252 254 255 256 257 259 258 256 251 244 237 234 235 236 237 238 237 236 235 233 232 231 233 235 235 234 234 232 232 238 242 243 246 248 246 243 242 242 243 244 244 244 241 238 237 236 234 233 233 233
245 245 246 247 248 249 250 251 253 255 257 260 262 262 263 264 265 265 265 266 268 269 270 270 269 269 269 269 269 269 271 273 276 276 274 268 258 249 249 252 252 252 253 254 254 253 251 247 240 236 236 236 237 237 237 236 235 234 231 230 234 237 238 238 237 234 233 238 243 241 241 245 246 243 242 241 240 240 242 244 243 240 239 240 238 236 232 228
248 248 249 250 250 251 253 254 255 257 259 261 262 263 264 264 265 264 264 264 265 265 265 265 266 267 268 268 268 267 268 270 273 276 275 272 262 249 243 246 249 251 252 252 251 249 247 242 237 237 237 237 237 237 236 235 235 234 231 229 233 237 240 241 241 238 236 239 242 241 239 242 245 244 244 243 241 239 239 242 244 244 243 242 242 239 234 228
250 250 251 251 252 253 254 255 256 258 260 261 263 263 263 264 264 264 264 263 262 262 262 262 263 265 267 268 267 266 267 267 270 274 275 274 267 253 241 239 244 248 251 252 252 252 250 242 233 232 235 235 236 237 236 236 235 235 232 230 232 236 240 243 243 238 235 239 243 242 240 243 246 246 245 244 242 241 239 239 241 243 245 245 243 241 237 231
250 251 252 252 253 254 255 256 258 259 261 262 262 262 262 262 262 262 263 263 263 262 262 261 262 263 265 266 265 265 265 265 266 269 272 272 269 258 244 236 238 243 247 250 252 252 253 249 237 230 231 233 235 236 237 237 236 235 234 231 231 234 237 239 239 235 232 238 243 243 242 245 248 248 247 244 242 242 241 239 238 238 242 245 245 243 239 235
250 251 252 253 254 255 256 258 259 260 261 261 261 262 262 262 262 263 263 264 263 262 261 261 260 262 263 262 262 262 263 264 265 265 266 267 266 261 250 238 234 237 241 245 248 249 249 249 243 235 232 231 232 235 236 236 236 235 233 231 230 231 234 236 236 232 230 235 240 241 241 246 250 250 249 248 245 244 244 244 242 239 237 240 244 246 244 240
251 251 252 253 255 256 257 257 258 259 260 261 261 262 262 262 262 263 263 263 263 262 260 259 259 260 260 259 258 259 261 264 266 264 262 260 260 258 252 243 235 234 237 239 244 247 247 246 245 242 238 234 230 231 233 234 234 233 231 229 229 230 233 237 237 232 229 231 236 239 239 245 252 252 250 250 248 246 247 247 247 246 242 240 241 243 245 244
252 253 253 254 254 255 256 257 258 259 260 260 260 261 262 262 261 262 263 263 262 261 260 259 258 257 256 255 254 255 258 262 265 265 261 258 256 254 251 245 238 235 235 235 238 244 247 245 243 243 243 240 235 231 230 230 229 230 229 228 229 230 233 236 236 235 233 231 233 234 234 241 249 251 250 250 249 247 247 249 250 251 249 246 243 242 244 245
253 253 253 253 254 254 255 256 257 258 259 259 260 260 261 261 261 262 262 263 262 262 261 260 258 255 252 250 249 251 255 259 262 264 263 259 256 253 250 245 239 236 235 235 234 240 245 245 242 240 240 241 240 237 235 232 230 229 228 227 228 230 233 236 238 238 238 235 232 230 229 235 245 250 250 249 249 248 247 249 251 252 251 250 248 246 244 244
252 253 252 252 252 253 254 255 256 257 258 258 259 260 261 262 262 262 262 263 263 262 262 260 258 254 250 247 247 248 252 257 261 262 262 259 256 253 250 244 239 236 236 236 234 236 241 243 242 240 241 241 242 242 242 238 234 232 228 226 226 228 232 237 239 239 239 239 236 228 225 231 239 247 251 251 250 250 248 248 250 251 250 249 248 248 246 244
251 252 252 252 252 252 253 254 255 256 257 257 258 259 261 262 262 262 262 263 264 264 263 261 257 253 249 246 247 248 249 254 260 261 261 260 256 253 250 245 239 235 235 236 235 235 239 243 242 240 241 241 241 242 242 239 235 232 228 226 224 223 226 233 237 238 238 240 236 226 224 231 235 242 250 252 251 249 248 248 249 249 248 247 247 248 247 246
251 252 253 253 252 252 252 253 254 255 256 256 257 259 260 261 261 262 262 263 263 263 261 259 255 251 248 247 248 249 249 252 257 261 261 260 258 254 250 246 241 236 234 234 235 235 238 241 242 240 239 239 239 239 239 239 236 233 229 226 222 219 219 225 231 234 235 238 235 224 222 231 234 236 244 249 250 248 247 248 249 248 247 246 247 249 250 250
250 251 252 253 252 252 252 253 253 254 256 256 257 258 259 260 260 260 260 260 260 260 258 255 252 249 248 248 249 250 251 252 255 260 262 261 259 256 251 247 241 236 233 232 233 235 238 240 241 241 239 238 238 238 237 237 237 236 232 227 221 218 217 219 225 230 232 235 233 223 221 228 232 234 239 245 250 250 246 245 245 247 248 248 248 250 252 253
249 250 251 252 253 253 252 253 254 254 255 257 257 258 258 259 259 259 258 258 257 257 256 253 251 249 249 251 252 252 252 253 255 260 262 262 260 257 253 247 242 237 233 231 231 234 239 241 240 239 239 238 237 238 237 235 235 236 235 230 225 220 217 216 220 225 229 233 232 225 221 224 228 232 236 244 251 253 251 248 248 250 252 251 250 250 251 253
249 250 251 251 252 253 253 253 254 254 256 257 257 257 258 258 258 257 256 256 255 255 254 252 251 251 251 253 254 254 254 254 256 258 261 262 260 257 254 249 242 236 233 230 229 232 239 243 241 238 238 238 237 238 238 236 235 234 233 232 229 225 220 217 218 221 225 229 231 227 222 221 224 228 233 240 248 255 258 256 254 254 255 255 253 251 251 252
Height
10954 10953 10952 10951 10951 10951 10951 10951 10951 10951 10951 10951 10950 10950 10949 10949 10948 10947 10945 10944 10945 10946 10947 10947 10948 10948 10948 10948 10947 10946 10946 10945 10944 10945 10944 10944 10944 10944 10944 10944 10943 10943 10944 10944 10945 10947 10947 10948 10949 10950 10951 10953 10954 10955 10957 10958 10959 10961 10963 10964 10966 10968 10970 10972 10973 10974 10976 10977 10979 10981 10983 10985 10987 10987 10987 10987 10988 10990 10991 10992 10992 10991 10992 10994 10995 10997 10997 10998
10951 10951 10950 10949 10949 10949 10948 10948 10948 10948 10948 10948 10948 10947 10947 10946 10946 10945 10944 10942 10942 10943 10944 10945 10945 10946 10946 10946 10945 10944 10944 10943 10943 10943 10943 10942 10942 10942 10942 10942 10942 10941 10942 10942 10943 10945 10946 10946 10947 10947 10949 10950 10951 10953 10954 10955 10957 10958 10960 10962 10964 10966 10968 10969 10971 10972 10974 10975 10977 10978 10980 10982 10984 10984 10984 10985 10987 10988 10990 10990 10990 10990 10991 10993 10994 10996 10997 10997
10948 10948 10947 10947 10947 10946 10946 10946 10946 10946 10945 10945 10945 10945 10944 10944 10944 10943 10942 10941 10939 10939 10941 10942 10943 10943 10944 10944 10944 10943 10942 10942 10941 10941 10942 10941 10941 10941 10940 10940 10940 10939 10940 10940 10940 10943 10944 10944 10945 10945 10946 10947 10948 10950 10951 10953 10954 10956 10957 10959 10961 10963 10965 10967 10969 10970 10972 10973 10975 10976 10978 10980 10981 10982 10982 10984 10986 10987 10988 10989 10989 10989 10990 10991 10993 10994 10995 10996
10945 10945 10945 10944 10944 10944 10944 10943 10943 10943 10943 10942 10942 10941 10941 10941 10941 10940 10940 10939 10937 10937 10937 10939 10940 10941 10941 10941 10941 10940 10940 10940 10939 10939 10940 10940 10940 10939 10938 10938 10938 10937 10938 10938 10939 10940 10942 10943 10943 10943 10944 10945 10946 10947 10949 10950 10952 10953 10955 10956 10959 10961 10963 10965 10967 10968 10970 10971 10973 10974 10976 10977 10979 10980 10981 10982 10984 10986 10987 10988 10988 10988 10988 10989 10991 10992 10994 10995
10942 10942 10941 10941 10941 10941 10941 10941 10940 10940 10940 10939 10939 10938 10938 10938 10938 10938 10937 10936 10935 10934 10934 10935 10936 10938 10939 10939 10938 10938 10938 10937 10937 10937 10938 10939 10939 10938 10937 10937 10937 10936 10936 10937 10937 10938 10939 10940 10941 10941 10942 10943 10944 10945 10946 10947 10949 10951 10952 10954 10956 10958 10960 10962 10964 10966 10968 10969 10971 10972 10974 10975 10977 10978 10979 10980 10982 10984 10985 10986 10987 10987 10988 10988 10989 10990 10992 10993
10938 10938 10938 10938 10937 10937 10937 10937 10937 10937 10937 10936 10935 10935 10935 10934 10934 10934 10934 10934 10933 10931 10931 10932 10933 10935 10936 10936 10936 10935 10935 10935 10935 10935 10936 10937 10938 10937 10936 10936 10936 10935 10934 10935 10936 10936 10937 10937 10939 10939 10940 10941 10942 10943 10944 10945 10946 10948 10949 10951 10952 10955 10957 10959 10961 10963 10965 10966 10968 10970 10971 10973 10974 10975 10977 10978 10980 10981 10983 10983 10984 10985 10986 10987 10987 10988 10990 10991
10934 10934 10934 10934 10934 10933 10933 10933 10933 10933 10933 10933 10932 10931 10931 10931 10930 10930 10930 10930 10929 10929 10928 10928 10929 10931 10932 10933 10933 10932 10931 10932 10933 10933 10933 10935 10936 10936 10935 10935 10934 10934 10932 10933 10934 10935 10935 10936 10936 10937 10937 10938 10940 10941 10942 10942 10944 10945 10947 10948 10950 10951 10954 10956 10958 10960 10962 10964 10966 10967 10969 10971 10972 10973 10975 10976 10978 10979 10980 10981 10982 10983 10984 10985 10986 10987 10988 10988
10930 10930 10930 10930 10930 10929 10929 10929 10929 10929 10929 10929 10928 10927 10926 10926 10926 10926 10926 10926 10926 10925 10925 10925 10926 10927 10929 10929 10930 10929 10928 10929 10931 10931 10931 10932 10933 10934 10934 10934 10933 10933 10931 10931 10932 10933 10934 10935 10935 10936 10936 10936 10937 10938 10939 10940 10941 10943 10944 10946 10947 10949 10951 10953 10955 10957 10959 10961 10963 10965 10967 10968 10970 10971 10973 10974 10976 10977 10978 10979 10979 10980 10982 10983 10984 10985 10986 10986
10925 10925 10925 10925 10925 10925 10925 10925 10925 10925 10925 10924 10923 10922 10922 10922 10922 10922 10921 10921 10922 10922 10922 10922 10923 10924 10925 10926 10926 10926 10925 10926 10928 10928 10929 10930 10931 10931 10931 10932 10932 10932 10930 10929 10930 10931 10932 10933 10934 10934 10935 10934 10934 10935 10936 10937 10939 10941 10942 10943 10945 10946 10948 10950 10952 10954 10956 10958 10960 10962 10964 10966 10967 10969 10970 10972 10973 10975 10976 10977 10977 10977 10979 10981 10982 10983 10984 10985
10920 10920 10920 10920 10920 10920 10920 10920 10920 10920 10920 10919 10918 10917 10917 10917 10917 10917 10917 10917 10917 10917 10918 10918 10919 10920 10921 10921 10922 10923 10923 10923 10924 10926 10926 10927 10928 10929 10929 10929 10930 10930 10929 10928 10928 10929 10930 10931 10931 10932 10933 10932 10932 10933 10933 10935 10937 10939 10940 10941 10943 10944 10946 10948 10950 10951 10953 10955 10957 10959 10961 10963 10965 10966 10968 10970 10971 10972 10973 10974 10974 10975 10975 10978 10980 10981 10982 10983
10914 10914 10914 10915 10914 10915 10915 10915 10915 10915 10915 10914 10913 10913 10912 10912 10913 10913 10912 10912 10912 10913 10913 10914 10916 10917 10917 10917 10918 10919 10920 10920 10921 10922 10924 10923 10925 10926 10926 10927 10927 10928 10928 10926 10926 10927 10928 10929 10929 10930 10931 10931 10931 10931 10931 10932 10934 10936 10937 10939 10940 10942 10944 10945 10947 10948 10950 10952 10954 10956 10958 10960 10962 10963 10965 10967 10968 10970 10971 10971 10972 10972 10972 10974 10977 10979 10980 10981
10909 10909 10909 10909 10909 10909 10910 10910 10910 10910 10910 10909 10909 10909 10908 10908 10908 10908 10908 10908 10908 10908 10909 10911 10912 10914 10914 10913 10913 10915 10917 10918 10918 10919 10920 10920 10921 10923 10923 10924 10925 10926 10926 10925 10924 10925 10926 10927 10928 10928 10929 10929 10930 10930 10930 10931 10932 10933 10935 10936 10937 10939 10941 10942 10944 10946 10947 10949 10951 10953 10955 10957 10959 10960 10962 10964 10965 10967 10968 10969 10969 10970 10970 10970 10972 10975 10977 10978
10904 10903 10903 10904 10904 10904 10904 10905 10906 10905 10904 10904 10904 10904 10904 10904 10904 10904 10903 10903 10904 10904 10905 10906 10908 10910 10910 10908 10908 10911 10914 10915 10915 10915 10916 10917 10917 10919 10920 10921 10922 10923 10924 10924 10922 10923 10924 10925 10926 10927 10928 10928 10928 10928 10929 10930 10931 10931 10932 10933 10934 10936 10937 10939 10941 10943 10945 10946 10948 10950 10952 10954 10956 10958 10959 10961 10962 10964 10965 10966 10967 10967 10968 10968 10969 10971 10974 10976
10898 10898 10898 10898 10899 10899 10899 10900 10901 10900 10899 10899 10900 10900 10900 10900 10900 10900 10899 10899 10900 10900 10901 10902 10903 10905 10905 10904 10904 10907 10910 10911 10911 10911 10912 10913 10914 10915 10917 10919 10920 10921 10922 10922 10921 10920 10922 10923 10924 10925 10926 10926 10927 10927 10927 10929 10930 10930 10930 10930 10931 10932 10934 10936 10938 10940 10942 10943 10945 10947 10949 10951 10953 10955 10956 10958 10959 10960 10962 10963 10964 10965 10965 10966 10966 10968 10970 10972
10894 10894 10894 10894 10894 10894 10895 10896 10896 10895 10895 10895 10895 10896 10896 10895 10895 10895 10895 10895 10895 10896 10896 10897 10898 10899 10899 10899 10900 10902 10905 10907 10907 10907 10907 10909 10911 10912 10913 10916 10917 10918 10919 10920 10919 10918 10919 10921 10922 10923 10924 10924 10925 10925 10925 10927 10928 10929 10928 10928 10928 10929 10931 10933 10935 10937 10939 10940 10942 10944 10946 10948 10949 10951 10953 10955 10956 10957 10959 10960 10961 10962 10963 10963 10965 10966 10968 10970
10889 10889 10889 10889 10889 10890 10890 10892 10892 10890 10891 10891 10891 10891 10891 10891 10890 10890 10890 10891 10891 10891 10892 10892 10893 10895 10894 10894 10897 10898 10899 10901 10903 10903 10903 10905 10907 10908 10909 10912 10914 10916 10916 10916 10916 10916 10916 10918 10919 10921 10922 10922 10923 10923 10923 10925 10926 10927 10927 10927 10927 10928 10929 10931 10933 10934 10936 10937 10939 10941 10943 10945 10947 10948 10950 10952 10954 10955 10956 10957 10958 10959 10960 10961 10963 10965 10967 10969
10885 10885 10885 10885 10886 10886 10886 10888 10888 10886 10887 10887 10887 10887 10887 10886 10886 10886 10886 10886 10887 10887 10888 10888 10889 10890 10890 10890 10893 10894 10893 10895 10898 10899 10899 10899 10902 10904 10905 10908 10911 10913 10912 10911 10913 10914 10913 10914 10916 10918 10919 10920 10921 10921 10921 10922 10923 10924 10925 10925 10926 10926 10928 10929 10930 10932 10933 10934 10936 10939 10941 10943 10944 10946 10947 10948 10950 10952 10952 10953 10954 10955 10956 10958 10961 10964 10967 10968
10881 10882 10882 10882 10882 10882 10883 10884 10883 10882 10883 10883 10882 10882 10882 10882 10881 10882 10882 10882 10883 10885 10885 10885 10886 10887 10886 10886 10888 10889 10889 10890 10893 10896 10896 10895 10898 10901 10903 10905 10907 10909 10909 10907 10910 10912 10910 10910 10913 10916 10917 10917 10919 10920 10920 10920 10921 10922 10922 10923 10924 10925 10925 10927 10928 10929 10930 10932 10934 10936 10938 10940 10942 10943 10945 10946 10947 10948 10949 10950 10950 10952 10953 10956 10959 10962 10965 10967
10877 10878 10878 10878 10878 10878 10879 10880 10879 10878 10878 10879 10878 10878 10878 10878 10878 10879 10879 10879 10881 10882 10882 10883 10883 10884 10883 10882 10884 10885 10885 10886 10889 10892 10893 10893 10894 10897 10899 10901 10903 10905 10905 10904 10906 10909 10907 10905 10909 10914 10914 10915 10917 10918 10918 10918 10919 10920 10920 10922 10922 10923 10923 10924 10925 10926 10928 10929 10931 10933 10935 10937 10939 10941 10942 10943 10944 10945 10946 10947 10947 10949 10951 10954 10957 10959 10962 10964
10872 10873 10874 10874 10874 10874 10874 10875 10875 10874 10874 10874 10874 10874 10874 10874 10875 10876 10875 10876 10878 10879 10879 10880 10881 10881 10879 10879 10879 10880 10881 10883 10886 10888 10889 10889 10891 10893 10896 10897 10898 10899 10900 10901 10903 10906 10904 10901 10906 10912 10912 10912 10914 10916 10916 10916 10918 10919 10918 10920 10921 10921 10922 10922 10923 10924 10925 10926 10928 10930 10932 10934 10936 10938 10939 10940 10941 10942 10943 10944 10945 10946 10949 10951 10954 10956 10959 10961
10867 10869 10869 10869 10869 10870 10870 10871 10870 10870 10870 10870 10870 10870 10870 10871 10873 10873 10873 10874 10875 10876 10877 10877 10878 10877 10876 10876 10877 10878 10879 10881 10884 10885 10885 10886 10888 10890 10892 10893 10894 10894 10897 10900 10901 10901 10899 10898 10903 10909 10909 10909 10911 10913 10914 10914 10916 10917 10917 10918 10919 10920 10921 10921 10921 10921 10922 10923 10924 10926 10929 10931 10933 10935 10936 10938 10939 10940 10941 10942 10943 10945 10947 10949 10951 10954 10957 10958
10862 10864 10864 10864 10865 10865 10866 10866 10866 10866 10866 10866 10866 10867 10868 10869 10870 10871 10870 10871 10872 10873 10874 10874 10874 10874 10874 10875 10875 10876 10877 10879 10881 10882 10882 10883 10884 10886 10887 10889 10890 10891 10894 10897 10897 10895 10894 10897 10902 10906 10905 10905 10908 10910 10911 10912 10913 10915 10916 10916 10917 10917 10918 10919 10919 10920 10920 10921 10922 10923 10925 10928 10930 10932 10933 10935 10937 10938 10940 10940 10941 10942 10944 10947 10949 10952 10954 10955
10857 10859 10859 10860 10860 10861 10861 10862 10862 10862 10863 10862 10863 10864 10865 10866 10868 10868 10868 10868 10870 10871 10872 10872 10871 10871 10872 10873 10874 10875 10875 10876 10877 10879 10880 10880 10880 10882 10884 10885 10885 10888 10891 10893 10892 10890 10891 10897 10901 10901 10900 10901 10905 10907 10908 10909 10911 10913 10915 10915 10914 10914 10915 10916 10917 10919 10919 10920 10920 10921 10923 10925 10927 10929 10930 10932 10934 10936 10937 10938 10939 10940 10942 10944 10947 10949 10951 10952
10852 10854 10854 10855 10856 10856 10857 10857 10858 10859 10859 10859 10860 10861 10863 10864 10865 10866 10866 10866 10868 10869 10869 10869 10869 10869 10871 10871 10872 10873 10873 10873 10874 10876 10878 10877 10878 10879 10880 10881 10883 10885 10886 10887 10887 10886 10890 10896 10898 10897 10897 10898 10901 10903 10905 10907 10909 10911 10913 10914 10913 10912 10913 10913 10915 10916 10918 10919 10919 10919 10921 10922 10924 10926 10927 10930 10932 10933 10935 10936 10937 10938 10940 10942 10944 10946 10948 10950
10847 10849 10850 10851 10851 10852 10853 10854 10854 10855 10856 10856 10857 10859 10861 10862 10862 10863 10864 10865 10866 10866 10867 10867 10867 10868 10869 10869 10870 10870 10870 10871 10872 10873 10874 10875 10876 10876 10877 10878 10880 10881 10882 10883 10883 10883 10888 10893 10894 10895 10895 10894 10896 10899 10902 10904 10907 10910 10912 10912 10911 10910 10911 10911 10912 10914 10916 10917 10918 10919 10919 10921 10922 10923 10925 10928 10930 10931 10932 10934 10935 10937 10938 10940 10942 10944 10946 10948
10842 10844 10845 10846 10847 10847 10849 10850 10851 10852 10853 10854 10855 10857 10858 10859 10860 10861 10862 10863 10864 10864 10865 10865 10866 10866 10866 10867 10867 10868 10868 10869 10869 10870 10871 10872 10873 10873 10874 10875 10876 10877 10879 10880 10880 10881 10885 10889 10890 10891 10892 10891 10892 10895 10899 10901 10904 10907 10909 10910 10909 10908 10909 10910 10910 10911 10913 10915 10917 10918 10919 10919 10920 10921 10923 10926 10928 10929 10931 10931 10933 10935 10936 10938 10940 10942 10944 10946
10838 10840 10841 10842 10843 10844 10845 10847 10848 10849 10850 10851 10853 10854 10855 10857 10858 10859 10859 10860 10861 10862 10862 10863 10863 10863 10863 10864 10864 10865 10866 10865 10866 10867 10868 10869 10869 10870 10871 10871 10873 10874 10876 10878 10875 10875 10882 10886 10886 10888 10889 10889 10889 10892 10896 10898 10901 10904 10906 10906 10907 10907 10908 10908 10908 10909 10910 10912 10915 10917 10918 10918 10919 10920 10922 10924 10926 10927 10929 10930 10931 10932 10934 10936 10938 10940 10942 10944
10834 10836 10838 10839 10840 10840 10842 10844 10845 10846 10848 10849 10850 10851 10853 10854 10855 10856 10857 10858 10859 10859 10859 10859 10860 10860 10860 10860 10861 10862 10862 10862 10863 10865 10865 10866 10866 10867 10868 10868 10871 10872 10874 10874 10870 10871 10880 10884 10882 10885 10887 10886 10886 10890 10892 10894 10898 10901 10902 10903 10905 10905 10906 10907 10907 10907 10908 10909 10912 10915 10916 10917 10918 10919 10920 10922 10924 10926 10927 10928 10929 10930 10932 10934 10936 10938 10940 10941
10830 10833 10835 10836 10837 10837 10839 10841 10842 10843 10845 10846 10847 10849 10850 10852 10853 10854 10854 10855 10855 10855 10856 10856 10857 10857 10857 10857 10858 10858 10858 10859 10860 10861 10862 10862 10863 10864 10865 10866 10868 10870 10870 10868 10867 10871 10878 10879 10879 10883 10882 10881 10884 10887 10889 10891 10894 10897 10899 10901 10903 10904 10904 10905 10905 10906 10906 10907 10909 10912 10914 10915 10917 10918 10918 10919 10922 10924 10925 10926 10927 10928 10930 10932 10934 10936 10937 10939
10828 10830 10832 10834 10834 10834 10836 10838 10839 10840 10842 10843 10845 10846 10848 10849 10850 10851 10851 10851 10851 10852 10852 10853 10853 10854 10854 10855 10855 10855 10855 10856 10857 10858 10859 10859 10860 10861 10861 10863 10866 10867 10865 10864 10865 10868 10872 10875 10877 10878 10876 10877 10882 10884 10885 10887 10891 10895 10898 10900 10902 10902 10903 10904 10904 10904 10905 10905 10907 10910 10911 10913 10915 10915 10916 10917 10920 10922 10923 10924 10925 10926 10928 10931 10933 10934 10935 10937
10826 10828 10830 10831 10831 10831 10833 10835 10836 10838 10839 10841 10842 10844 10845 10847 10847 10848 10848 10848 10848 10848 10848 10849 10850 10851 10852 10852 10852 10852 10852 10854 10855 10855 10855 10856 10857 10858 10858 10860 10863 10863 10862 10861 10862 10865 10868 10872 10873 10871 10871 10876 10881 10882 10882 10884 10887 10893 10896 10898 10900 10900 10901 10902 10902 10904 10904 10903 10905 10907 10909 10911 10912 10913 10914 10915 10917 10920 10921 10922 10923 10924 10926 10929 10931 10932 10933 10935
10824 10826 10827 10828 10827 10828 10830 10833 10834 10835 10836 10838 10839 10841 10842 10844 10844 10845 10845 10845 10845 10845 10845 10846 10847 10848 10849 10849 10849 10849 10850 10851 10851 10852 10852 10852 10853 10855 10855 10857 10859 10860 10859 10858 10860 10863 10866 10869 10869 10867 10869 10874 10878 10879 10879 10880 10884 10890 10894 10896 10897 10898 10899 10900 10901 10904 10903 10902 10903 10905 10907 10908 10909 10910 10912 10913 10915 10917 10919 10921 10922 10923 10925 10928 10930 10930 10931 10933
10822 10823 10824 10824 10824 10826 10828 10830 10831 10832 10833 10835 10837 10838 10839 10841 10842 10842 10842 10842 10842 10841 10841 10843 10844 10845 10845 10845 10845 10845 10846 10848 10848 10848 10848 10848 10850 10852 10852 10854 10856 10856 10855 10855 10858 10861 10863 10865 10866 10866 10867 10871 10874 10875 10875 10877 10882 10889 10892 10894 10894 10895 10897 10899 10901 10903 10901 10900 10901 10902 10905 10906 10907 10908 10910 10911 10913 10915 10917 10919 10920 10921 10924 10926 10928 10929 10929 10931
10819 10820 10821 10821 10821 10824 10826 10827 10828 10829 10830 10832 10833 10835 10836 10838 10839 10839 10839 10839 10839 10838 10839 10840 10841 10841 10841 10842 10842 10842 10843 10844 10844 10844 10844 10845 10847 10848 10849 10850 10852 10853 10852 10852 10855 10858 10859 10861 10862 10862 10863 10867 10869 10870 10872 10875 10881 10887 10890 10891 10892 10893 10895 10898 10900 10900 10899 10898 10899 10901 10904 10905 10905 10906 10907 10909 10911 10913 10914 10917 10918 10920 10922 10925 10926 10927 10928 10929
10816 10817 10818 10818 10819 10821 10823 10824 10824 10825 10827 10828 10830 10831 10833 10835 10835 10836 10836 10836 10836 10835 10836 10837 10838 10838 10838 10838 10838 10838 10838 10840 10841 10841 10841 10842 10843 10845 10846 10847 10848 10850 10850 10850 10851 10853 10855 10856 10856 10856 10858 10862 10865 10866 10869 10873 10879 10884 10886 10887 10889 10891 10894 10896 10897 10898 10898 10898 10898 10900 10903 10905 10904 10905 10906 10907 10908 10910 10912 10914 10916 10918 10920 10923 10924 10925 10926 10927
10812 10813 10815 10815 10816 10818 10820 10821 10821 10822 10823 10825 10826 10828 10830 10831 10832 10833 10834 10833 10832 10832 10833 10834 10835 10835 10835 10834 10834 10834 10834 10836 10837 10838 10838 10839 10840 10841 10843 10844 10845 10846 10847 10847 10848 10850 10851 10851 10851 10853 10855 10858 10860 10863 10867 10872 10877 10880 10882 10884 10887 10888 10890 10892 10893 10896 10897 10897 10897 10899 10902 10903 10903 10904 10905 10905 10906 10908 10910 10912 10914 10916 10918 10921 10922 10924 10925 10926
10809 10810 10811 10812 10813 10815 10816 10817 10817 10818 10820 10821 10823 10825 10827 10828 10828 10830 10831 10830 10829 10829 10830 10831 10831 10831 10831 10831 10831 10830 10831 10832 10833 10835 10835 10836 10837 10838 10840 10842 10843 10843 10844 10844 10845 10846 10847 10847 10850 10852 10853 10854 10857 10861 10866 10870 10874 10877 10878 10881 10884 10885 10886 10889 10890 10892 10894 10895 10896 10898 10900 10901 10901 10902 10903 10903 10905 10906 10908 10909 10911 10914 10916 10918 10920 10922 10923 10924
10805 10806 10808 10809 10810 10811 10812 10813 10814 10814 10816 10817 10819 10822 10823 10824 10825 10827 10827 10827 10826 10826 10827 10828 10828 10827 10827 10828 10828 10827 10827 10828 10830 10832 10832 10833 10834 10836 10837 10838 10839 10840 10840 10840 10841 10842 10842 10845 10849 10850 10849 10852 10855 10859 10863 10867 10870 10872 10875 10879 10881 10882 10884 10885 10887 10889 10892 10893 10894 10897 10899 10899 10899 10900 10900 10901 10903 10904 10905 10907 10909 10912 10914 10915 10917 10919 10921 10923
10800 10802 10804 10804 10806 10807 10808 10809 10810 10811 10812 10813 10815 10818 10820 10821 10823 10824 10824 10824 10824 10823 10823 10824 10823 10823 10823 10825 10826 10825 10824 10824 10826 10828 10829 10830 10832 10833 10834 10835 10836 10836 10836 10836 10837 10838 10838 10841 10846 10847 10847 10850 10853 10856 10859 10863 10865 10868 10873 10878 10879 10880 10882 10883 10885 10889 10891 10892 10893 10895 10898 10897 10897 10898 10898 10899 10901 10902 10903 10905 10907 10910 10911 10913 10915 10917 10919 10921
10796 10798 10799 10800 10801 10803 10803 10805 10806 10806 10807 10809 10811 10814 10816 10817 10819 10820 10820 10820 10821 10820 10820 10820 10819 10819 10820 10821 10823 10822 10822 10821 10822 10824 10826 10827 10829 10830 10831 10831 10832 10832 10833 10833 10834 10834 10834 10837 10842 10844 10845 10848 10850 10852 10855 10858 10861 10865 10871 10875 10876 10878 10879 10881 10884 10888 10890 10891 10891 10894 10896 10895 10895 10896 10897 10898 10899 10901 10902 10903 10905 10907 10909 10911 10913 10914 10917 10919
10792 10794 10795 10796 10797 10798 10799 10800 10801 10802 10803 10805 10807 10809 10812 10813 10815 10816 10816 10817 10817 10817 10817 10817 10816 10815 10817 10818 10819 10819 10819 10819 10819 10821 10822 10823 10825 10827 10827 10828 10829 10829 10829 10830 10831 10831 10832 10834 10837 10840 10842 10845 10846 10848 10851 10855 10858 10862 10867 10871 10873 10875 10877 10879 10882 10885 10888 10889 10889 10892 10894 10893 10893 10894 10895 10896 10897 10899 10900 10902 10904 10906 10907 10909 10910 10912 10914 10916
10787 10789 10790 10791 10792 10793 10794 10796 10797 10798 10799 10800 10802 10805 10807 10809 10811 10812 10812 10813 10813 10814 10814 10814 10813 10813 10814 10815 10816 10815 10815 10816 10816 10818 10819 10819 10820 10822 10823 10824 10825 10825 10826 10827 10829 10829 10829 10832 10835 10836 10837 10839 10841 10844 10848 10852 10855 10860 10864 10867 10870 10872 10873 10875 10877 10882 10886 10887 10888 10890 10892 10891 10891 10892 10893 10894 10895 10897 10898 10900 10902 10904 10906 10907 10908 10910 10912 10914
10782 10784 10785 10786 10787 10789 10790 10792 10792 10793 10794 10796 10798 10800 10802 10804 10807 10808 10808 10809 10809 10810 10810 10810 10810 10810 10811 10812 10812 10812 10811 10812 10813 10815 10816 10815 10815 10816 10818 10820 10822 10822 10823 10824 10825 10826 10827 10829 10831 10832 10833 10835 10838 10841 10844 10848 10852 10857 10860 10863 10866 10868 10869 10871 10874 10879 10884 10885 10885 10888 10890 10890 10889 10890 10890 10892 10893 10895 10896 10898 10900 10902 10904 10905 10906 10908 10910 10912
10777 10779 10780 10781 10782 10784 10786 10787 10787 10788 10790 10791 10793 10795 10797 10799 10802 10804 10804 10804 10805 10805 10806 10806 10807 10807 10808 10808 10808 10808 10808 10807 10808 10810 10812 10811 10810 10810 10812 10815 10817 10818 10819 10820 10821 10822 10824 10826 10828 10829 10830 10831 10834 10836 10838 10843 10847 10851 10855 10859 10862 10865 10867 10869 10872 10877 10880 10881 10883 10885 10889 10889 10887 10887 10888 10889 10891 10893 10895 10896 10898 10900 10902 10904 10905 10906 10907 10908
10771 10773 10775 10775 10777 10780 10781 10781 10782 10784 10785 10786 10788 10790 10791 10794 10797 10799 10798 10799 10800 10800 10801 10802 10804 10804 10804 10804 10805 10805 10804 10804 10804 10805 10807 10808 10807 10805 10807 10810 10812 10814 10815 10817 10819 10819 10820 10822 10824 10826 10827 10828 10830 10831 10832 10837 10841 10845 10851 10856 10859 10862 10865 10866 10870 10875 10877 10879 10881 10883 10887 10887 10885 10884 10886 10887 10889 10891 10893 10895 10896 10898 10900 10901 10903 10903 10904 10905
10765 10767 10769 10770 10772 10774 10775 10776 10777 10779 10780 10781 10783 10785 10786 10788 10792 10793 10793 10793 10794 10795 10796 10798 10799 10800 10800 10801 10801 10801 10801 10801 10801 10801 10802 10804 10804 10802 10803 10806 10808 10809 10811 10813 10815 10816 10816 10818 10821 10822 10823 10824 10826 10828 10831 10835 10839 10843 10849 10854 10857 10860 10863 10865 10869 10872 10874 10877 10879 10881 10884 10884 10882 10881 10883 10885 10886 10889 10892 10894 10894 10896 10897 10898 10899 10900 10901 10902
10759 10760 10762 10764 10766 10768 10769 10770 10772 10774 10774 10775 10777 10779 10781 10783 10786 10787 10787 10788 10788 10789 10791 10793 10795 10796 10796 10796 10797 10798 10798 10798 10797 10797 10798 10799 10800 10799 10799 10801 10803 10805 10807 10809 10812 10813 10812 10814 10817 10819 10820 10822 10825 10827 10830 10834 10837 10840 10845 10850 10854 10859 10862 10864 10866 10868 10871 10874 10876 10879 10881 10880 10880 10879 10880 10882 10884 10887 10890 10891 10892 10893 10894 10895 10896 10896 10897 10899
10753 10754 10755 10758 10761 10762 10763 10764 10766 10767 10768 10770 10772 10774 10775 10777 10779 10781 10782 10782 10782 10784 10786 10788 10790 10791 10791 10792 10793 10794 10795 10795 10794 10794 10794 10795 10796 10796 10796 10797 10799 10801 10803 10806 10808 10809 10809 10810 10813 10816 10818 10820 10822 10824 10825 10827 10830 10834 10840 10845 10850 10855 10858 10860 10861 10864 10867 10870 10872 10876 10878 10878 10877 10878 10878 10879 10881 10884 10887 10889 10889 10890 10890 10892 10893 10893 10894 10895
10747 10748 10749 10751 10754 10756 10757 10758 10760 10761 10762 10764 10766 10768 10770 10772 10773 10775 10777 10777 10777 10779 10781 10783 10784 10785 10786 10787 10788 10789 10791 10792 10791 10790 10790 10790 10791 10792 10793 10793 10795 10797 10799 10802 10804 10805 10805 10807 10810 10813 10815 10817 10818 10819 10819 10821 10825 10830 10836 10840 10845 10850 10853 10854 10856 10859 10863 10865 10867 10872 10875 10875 10875 10876 10875 10876 10878 10881 10884 10885 10885 10886 10887 10889 10890 10891 10891 10893
10740 10741 10742 10743 10746 10749 10750 10752 10753 10755 10756 10758 10760 10762 10764 10766 10767 10769 10770 10771 10771 10773 10775 10777 10779 10779 10780 10782 10783 10785 10787 10788 10788 10787 10786 10786 10786 10788 10789 10790 10791 10793 10795 10798 10801 10801 10801 10803 10807 10809 10811 10813 10814 10815 10815 10817 10822 10826 10831 10835 10840 10844 10847 10849 10852 10855 10859 10861 10863 10868 10871 10872 10872 10873 10874 10875 10876 10878 10880 10881 10882 10883 10885 10887 10888 10889 10890 10891
10732 10734 10735 10736 10738 10741 10743 10745 10747 10748 10749 10751 10753 10755 10758 10759 10761 10762 10764 10764 10765 10767 10769 10771 10773 10774 10775 10776 10778 10780 10782 10783 10784 10783 10782 10782 10782 10783 10785 10787 10787 10788 10791 10794 10797 10796 10796 10799 10803 10806 10808 10810 10811 10811 10812 10814 10818 10822 10825 10831 10836 10840 10842 10845 10848 10852 10855 10857 10860 10864 10866 10867 10868 10870 10873 10874 10875 10876 10878 10879 10881 10882 10883 10885 10886 10888 10888 10888
10724 10726 10728 10729 10731 10733 10736 10738 10740 10742 10743 10744 10746 10749 10751 10753 10754 10755 10757 10758 10760 10762 10763 10766 10768 10769 10770 10771 10772 10774 10777 10778 10779 10779 10778 10778 10777 10778 10781 10783 10783 10784 10787 10790 10793 10793 10792 10795 10799 10803 10805 10807 10808 10807 10808 10811 10814 10816 10820 10826 10832 10836 10840 10843 10845 10848 10851 10853 10856 10859 10861 10863 10866 10869 10871 10873 10874 10875 10876 10878 10880 10881 10882 10882 10884 10885 10886 10887